Year,Month,Day,Hour,Minute,Value (Times are PST for temperature in C)
2004,04,03,00,00,8.40
2004,04,03,00,01,8.40
2004,04,03,00,02,8.50
2004,04,03,00,03,8.60
2004,04,03,00,04,8.60
2004,04,03,00,05,8.70
2004,04,03,00,06,8.70
2004,04,03,00,07,8.60
2004,04,03,00,08,8.50
2004,04,03,00,09,8.50
2004,04,03,00,10,8.40
2004,04,03,00,11,8.20
2004,04,03,00,12,8.20
2004,04,03,00,13,8.00
2004,04,03,00,14,7.90
2004,04,03,00,15,7.80
2004,04,03,00,16,7.70
2004,04,03,00,17,7.60
2004,04,03,00,18,7.50
2004,04,03,00,19,7.40
2004,04,03,00,20,7.40
2004,04,03,00,21,7.30
2004,04,03,00,22,7.30
2004,04,03,00,23,7.30
2004,04,03,00,24,7.30
2004,04,03,00,25,7.20
2004,04,03,00,26,7.20
2004,04,03,00,27,7.30
2004,04,03,00,28,7.30
2004,04,03,00,29,7.30
2004,04,03,00,30,7.30
2004,04,03,00,31,7.30
2004,04,03,00,32,7.30
2004,04,03,00,33,7.30
2004,04,03,00,34,7.30
2004,04,03,00,35,7.30
2004,04,03,00,36,7.30
2004,04,03,00,37,7.30
2004,04,03,00,38,7.30
2004,04,03,00,39,7.30
2004,04,03,00,40,7.30
2004,04,03,00,41,7.20
2004,04,03,00,42,7.20
2004,04,03,00,43,7.10
2004,04,03,00,44,7.20
2004,04,03,00,45,7.20
2004,04,03,00,46,7.30
2004,04,03,00,47,7.40
2004,04,03,00,48,7.60
2004,04,03,00,49,7.60
2004,04,03,00,50,7.70
2004,04,03,00,51,7.70
2004,04,03,00,52,7.80
2004,04,03,00,53,7.80
2004,04,03,00,54,7.90
2004,04,03,00,55,7.90
2004,04,03,00,56,8.00
2004,04,03,00,57,8.00
2004,04,03,00,58,8.00
2004,04,03,00,59,8.00
2004,04,03,01,00,8.00
2004,04,03,01,01,8.00
2004,04,03,01,02,8.00
2004,04,03,01,03,8.00
2004,04,03,01,04,8.00
2004,04,03,01,05,8.10
2004,04,03,01,06,8.10
2004,04,03,01,07,8.10
2004,04,03,01,08,8.20
2004,04,03,01,09,8.20
2004,04,03,01,10,8.20
2004,04,03,01,11,8.30
2004,04,03,01,12,8.30
2004,04,03,01,13,8.30
2004,04,03,01,14,8.30
2004,04,03,01,15,8.30
2004,04,03,01,16,8.30
2004,04,03,01,17,8.20
2004,04,03,01,18,8.20
2004,04,03,01,19,8.20
2004,04,03,01,20,8.20
2004,04,03,01,21,8.30
2004,04,03,01,22,8.30
2004,04,03,01,23,8.30
2004,04,03,01,24,8.30
2004,04,03,01,25,8.30
2004,04,03,01,26,8.30
2004,04,03,01,27,8.30
2004,04,03,01,28,8.30
2004,04,03,01,29,8.30
2004,04,03,01,30,8.30
2004,04,03,01,31,8.30
2004,04,03,01,32,8.20
2004,04,03,01,33,8.20
2004,04,03,01,34,8.20
2004,04,03,01,35,8.10
2004,04,03,01,36,8.20
2004,04,03,01,37,8.20
2004,04,03,01,38,8.20
2004,04,03,01,39,8.30
2004,04,03,01,40,8.40
2004,04,03,01,41,8.40
2004,04,03,01,42,8.40
2004,04,03,01,43,8.40
2004,04,03,01,44,8.40
2004,04,03,01,45,8.40
2004,04,03,01,46,8.40
2004,04,03,01,47,8.50
2004,04,03,01,48,8.60
2004,04,03,01,49,8.70
2004,04,03,01,50,8.70
2004,04,03,01,51,8.70
2004,04,03,01,52,8.60
2004,04,03,01,53,8.50
2004,04,03,01,54,8.50
2004,04,03,01,55,8.50
2004,04,03,01,56,8.40
2004,04,03,01,57,8.40
2004,04,03,01,58,8.20
2004,04,03,01,59,8.20
2004,04,03,02,00,8.10
2004,04,03,02,01,8.10
2004,04,03,02,02,8.10
2004,04,03,02,03,8.10
2004,04,03,02,04,8.10
2004,04,03,02,05,8.10
2004,04,03,02,06,8.10
2004,04,03,02,07,8.10
2004,04,03,02,08,8.20
2004,04,03,02,09,8.20
2004,04,03,02,10,8.20
2004,04,03,02,11,8.20
2004,04,03,02,12,8.20
2004,04,03,02,13,8.20
2004,04,03,02,14,8.20
2004,04,03,02,15,8.20
2004,04,03,02,16,8.20
2004,04,03,02,17,8.20
2004,04,03,02,18,8.20
2004,04,03,02,19,8.30
2004,04,03,02,20,8.20
2004,04,03,02,21,8.20
2004,04,03,02,22,8.20
2004,04,03,02,23,8.20
2004,04,03,02,24,8.20
2004,04,03,02,25,8.20
2004,04,03,02,26,8.20
2004,04,03,02,27,8.30
2004,04,03,02,28,8.30
2004,04,03,02,29,8.40
2004,04,03,02,30,8.40
2004,04,03,02,31,8.50
2004,04,03,02,32,8.50
2004,04,03,02,33,8.50
2004,04,03,02,34,8.50
2004,04,03,02,35,8.40
2004,04,03,02,36,8.30
2004,04,03,02,37,8.20
2004,04,03,02,38,8.20
2004,04,03,02,39,8.10
2004,04,03,02,40,8.20
2004,04,03,02,41,8.10
2004,04,03,02,42,8.10
2004,04,03,02,43,8.00
2004,04,03,02,44,7.90
2004,04,03,02,45,7.90
2004,04,03,02,46,7.80
2004,04,03,02,47,7.80
2004,04,03,02,48,7.80
2004,04,03,02,49,7.80
2004,04,03,02,50,7.80
2004,04,03,02,51,7.80
2004,04,03,02,52,7.80
2004,04,03,02,53,7.80
2004,04,03,02,54,7.90
2004,04,03,02,55,7.90
2004,04,03,02,56,8.00
2004,04,03,02,57,8.00
2004,04,03,02,58,8.10
2004,04,03,02,59,8.10
2004,04,03,03,00,8.10
2004,04,03,03,01,8.00
2004,04,03,03,02,7.90
2004,04,03,03,03,7.90
2004,04,03,03,04,7.90
2004,04,03,03,05,7.80
2004,04,03,03,06,7.80
2004,04,03,03,07,7.70
2004,04,03,03,08,7.70
2004,04,03,03,09,7.60
2004,04,03,03,10,7.50
2004,04,03,03,11,7.50
2004,04,03,03,12,7.40
2004,04,03,03,13,7.40
2004,04,03,03,14,7.30
2004,04,03,03,15,7.30
2004,04,03,03,16,7.30
2004,04,03,03,17,7.20
2004,04,03,03,18,7.10
2004,04,03,03,19,7.10
2004,04,03,03,20,7.20
2004,04,03,03,21,7.30
2004,04,03,03,22,7.40
2004,04,03,03,23,7.50
2004,04,03,03,24,7.60
2004,04,03,03,25,7.70
2004,04,03,03,26,7.80
2004,04,03,03,27,7.80
2004,04,03,03,28,7.90
2004,04,03,03,29,8.00
2004,04,03,03,30,8.00
2004,04,03,03,31,8.00
2004,04,03,03,32,8.10
2004,04,03,03,33,8.10
2004,04,03,03,34,8.10
2004,04,03,03,35,8.10
2004,04,03,03,36,8.10
2004,04,03,03,37,8.20
2004,04,03,03,38,8.20
2004,04,03,03,39,8.20
2004,04,03,03,40,8.30
2004,04,03,03,41,8.40
2004,04,03,03,42,8.50
2004,04,03,03,43,8.60
2004,04,03,03,44,8.70
2004,04,03,03,45,8.80
2004,04,03,03,46,8.80
2004,04,03,03,47,8.90
2004,04,03,03,48,8.90
2004,04,03,03,49,8.90
2004,04,03,03,50,8.90
2004,04,03,03,51,8.90
2004,04,03,03,52,8.90
2004,04,03,03,53,8.90
2004,04,03,03,54,8.90
2004,04,03,03,55,8.80
2004,04,03,03,56,8.80
2004,04,03,03,57,8.70
2004,04,03,03,58,8.70
2004,04,03,03,59,8.70
2004,04,03,04,00,8.80
2004,04,03,04,01,8.90
2004,04,03,04,02,8.90
2004,04,03,04,03,8.80
2004,04,03,04,04,8.80
2004,04,03,04,05,8.70
2004,04,03,04,06,8.70
2004,04,03,04,07,8.70
2004,04,03,04,08,8.70
2004,04,03,04,09,8.70
2004,04,03,04,10,8.80
2004,04,03,04,11,8.80
2004,04,03,04,12,8.80
2004,04,03,04,13,8.80
2004,04,03,04,14,8.70
2004,04,03,04,15,8.80
2004,04,03,04,16,8.80
2004,04,03,04,17,8.80
2004,04,03,04,18,8.70
2004,04,03,04,19,8.50
2004,04,03,04,20,8.40
2004,04,03,04,21,8.40
2004,04,03,04,22,8.40
2004,04,03,04,23,8.40
2004,04,03,04,24,8.50
2004,04,03,04,25,8.50
2004,04,03,04,26,8.50
2004,04,03,04,27,8.40
2004,04,03,04,28,8.40
2004,04,03,04,29,8.30
2004,04,03,04,30,8.30
2004,04,03,04,31,8.30
2004,04,03,04,32,8.20
2004,04,03,04,33,8.30
2004,04,03,04,34,8.30
2004,04,03,04,35,8.20
2004,04,03,04,36,8.10
2004,04,03,04,37,8.00
2004,04,03,04,38,8.00
2004,04,03,04,39,7.90
2004,04,03,04,40,7.80
2004,04,03,04,41,7.70
2004,04,03,04,42,7.60
2004,04,03,04,43,7.50
2004,04,03,04,44,7.40
2004,04,03,04,45,7.30
2004,04,03,04,46,7.30
2004,04,03,04,47,7.30
2004,04,03,04,48,7.20
2004,04,03,04,49,7.20
2004,04,03,04,50,7.20
2004,04,03,04,51,7.20
2004,04,03,04,52,7.30
2004,04,03,04,53,7.30
2004,04,03,04,54,7.30
2004,04,03,04,55,7.30
2004,04,03,04,56,7.40
2004,04,03,04,57,7.40
2004,04,03,04,58,7.40
2004,04,03,04,59,7.40
2004,04,03,05,00,7.50
2004,04,03,05,01,7.50
2004,04,03,05,02,7.50
2004,04,03,05,03,7.50
2004,04,03,05,04,7.30
2004,04,03,05,05,7.20
2004,04,03,05,06,7.10
2004,04,03,05,07,6.90
2004,04,03,05,08,6.80
2004,04,03,05,09,6.80
2004,04,03,05,10,6.80
2004,04,03,05,11,6.80
2004,04,03,05,12,6.80
2004,04,03,05,13,6.80
2004,04,03,05,14,6.90
2004,04,03,05,15,6.90
2004,04,03,05,16,6.90
2004,04,03,05,17,7.00
2004,04,03,05,18,7.10
2004,04,03,05,19,7.10
2004,04,03,05,20,7.10
2004,04,03,05,21,7.20
2004,04,03,05,22,7.20
2004,04,03,05,23,7.20
2004,04,03,05,24,7.20
2004,04,03,05,25,7.20
2004,04,03,05,26,7.30
2004,04,03,05,27,7.30
2004,04,03,05,28,7.20
2004,04,03,05,29,7.20
2004,04,03,05,30,7.20
2004,04,03,05,31,7.20
2004,04,03,05,32,7.10
2004,04,03,05,33,7.10
2004,04,03,05,34,7.20
2004,04,03,05,35,7.20
2004,04,03,05,36,7.20
2004,04,03,05,37,7.30
2004,04,03,05,38,7.30
2004,04,03,05,39,7.30
2004,04,03,05,40,7.20
2004,04,03,05,41,7.10
2004,04,03,05,42,7.00
2004,04,03,05,43,6.90
2004,04,03,05,44,6.80
2004,04,03,05,45,6.80
2004,04,03,05,46,6.80
2004,04,03,05,47,6.80
2004,04,03,05,48,6.80
2004,04,03,05,49,6.80
2004,04,03,05,50,6.90
2004,04,03,05,51,7.00
2004,04,03,05,52,7.00
2004,04,03,05,53,7.00
2004,04,03,05,54,7.10
2004,04,03,05,55,7.10
2004,04,03,05,56,7.10
2004,04,03,05,57,7.10
2004,04,03,05,58,7.10
2004,04,03,05,59,7.20
2004,04,03,06,00,7.20
2004,04,03,06,01,7.20
2004,04,03,06,02,7.20
2004,04,03,06,03,7.20
2004,04,03,06,04,7.30
2004,04,03,06,05,7.30
2004,04,03,06,06,7.30
2004,04,03,06,07,7.30
2004,04,03,06,08,7.40
2004,04,03,06,09,7.50
2004,04,03,06,10,7.60
2004,04,03,06,11,7.70
2004,04,03,06,12,7.80
2004,04,03,06,13,7.80
2004,04,03,06,14,7.90
2004,04,03,06,15,8.00
2004,04,03,06,16,8.10
2004,04,03,06,17,8.10
2004,04,03,06,18,8.20
2004,04,03,06,19,8.20
2004,04,03,06,20,8.20
2004,04,03,06,21,8.30
2004,04,03,06,22,8.30
2004,04,03,06,23,8.40
2004,04,03,06,24,8.40
2004,04,03,06,25,8.50
2004,04,03,06,26,8.50
2004,04,03,06,27,8.60
2004,04,03,06,28,8.60
2004,04,03,06,29,8.70
2004,04,03,06,30,8.70
2004,04,03,06,31,8.70
2004,04,03,06,32,8.80
2004,04,03,06,33,8.80
2004,04,03,06,34,8.80
2004,04,03,06,35,8.90
2004,04,03,06,36,8.90
2004,04,03,06,37,8.90
2004,04,03,06,38,9.00
2004,04,03,06,39,9.00
2004,04,03,06,40,9.00
2004,04,03,06,41,9.10
2004,04,03,06,42,9.10
2004,04,03,06,43,9.10
2004,04,03,06,44,9.20
2004,04,03,06,45,9.20
2004,04,03,06,46,9.20
2004,04,03,06,47,9.20
2004,04,03,06,48,9.20
2004,04,03,06,49,9.20
2004,04,03,06,50,9.30
2004,04,03,06,51,9.30
2004,04,03,06,52,9.40
2004,04,03,06,53,9.40
2004,04,03,06,54,9.40
2004,04,03,06,55,9.50
2004,04,03,06,56,9.50
2004,04,03,06,57,9.50
2004,04,03,06,58,9.50
2004,04,03,06,59,9.50
2004,04,03,07,00,9.50
2004,04,03,07,01,9.60
2004,04,03,07,02,9.60
2004,04,03,07,03,9.60
2004,04,03,07,04,9.60
2004,04,03,07,05,9.60
2004,04,03,07,06,9.60
2004,04,03,07,07,9.70
2004,04,03,07,08,9.70
2004,04,03,07,09,9.70
2004,04,03,07,10,9.70
2004,04,03,07,11,9.70
2004,04,03,07,12,9.70
2004,04,03,07,13,9.70
2004,04,03,07,14,9.70
2004,04,03,07,15,9.70
2004,04,03,07,16,9.70
2004,04,03,07,17,9.80
2004,04,03,07,18,9.80
2004,04,03,07,19,9.80
2004,04,03,07,20,9.80
2004,04,03,07,21,9.80
2004,04,03,07,22,9.80
2004,04,03,07,23,9.80
2004,04,03,07,24,9.90
2004,04,03,07,25,9.90
2004,04,03,07,26,9.90
2004,04,03,07,27,9.90
2004,04,03,07,28,9.90
2004,04,03,07,29,9.90
2004,04,03,07,30,9.90
2004,04,03,07,31,9.90
2004,04,03,07,32,10.00
2004,04,03,07,33,10.10
2004,04,03,07,34,10.10
2004,04,03,07,35,10.20
2004,04,03,07,36,10.30
2004,04,03,07,37,10.30
2004,04,03,07,38,10.40
2004,04,03,07,39,10.40
2004,04,03,07,40,10.40
2004,04,03,07,41,10.40
2004,04,03,07,42,10.40
2004,04,03,07,43,10.40
2004,04,03,07,44,10.50
2004,04,03,07,45,10.60
2004,04,03,07,46,10.60
2004,04,03,07,47,10.60
2004,04,03,07,48,10.60
2004,04,03,07,49,10.60
2004,04,03,07,50,10.60
2004,04,03,07,51,10.60
2004,04,03,07,52,10.60
2004,04,03,07,53,10.60
2004,04,03,07,54,10.60
2004,04,03,07,55,10.60
2004,04,03,07,56,10.60
2004,04,03,07,57,10.60
2004,04,03,07,58,10.50
2004,04,03,07,59,10.40
2004,04,03,08,00,10.40
2004,04,03,08,01,10.40
2004,04,03,08,02,10.40
2004,04,03,08,03,10.40
2004,04,03,08,04,10.40
2004,04,03,08,05,10.40
2004,04,03,08,06,10.50
2004,04,03,08,07,10.60
2004,04,03,08,08,10.60
2004,04,03,08,09,10.60
2004,04,03,08,10,10.70
2004,04,03,08,11,10.60
2004,04,03,08,12,10.60
2004,04,03,08,13,10.60
2004,04,03,08,14,10.70
2004,04,03,08,15,10.80
2004,04,03,08,16,10.90
2004,04,03,08,17,10.90
2004,04,03,08,18,10.90
2004,04,03,08,19,10.90
2004,04,03,08,20,11.00
2004,04,03,08,21,11.10
2004,04,03,08,22,11.10
2004,04,03,08,23,11.10
2004,04,03,08,24,11.10
2004,04,03,08,25,11.10
2004,04,03,08,26,11.10
2004,04,03,08,27,11.10
2004,04,03,08,28,11.10
2004,04,03,08,29,11.10
2004,04,03,08,30,11.20
2004,04,03,08,31,11.20
2004,04,03,08,32,11.30
2004,04,03,08,33,11.30
2004,04,03,08,34,11.20
2004,04,03,08,35,11.20
2004,04,03,08,36,11.10
2004,04,03,08,37,11.10
2004,04,03,08,38,11.10
2004,04,03,08,39,11.20
2004,04,03,08,40,11.20
2004,04,03,08,41,11.20
2004,04,03,08,42,11.30
2004,04,03,08,43,11.30
2004,04,03,08,44,11.30
2004,04,03,08,45,11.40
2004,04,03,08,46,11.40
2004,04,03,08,47,11.40
2004,04,03,08,48,11.40
2004,04,03,08,49,11.50
2004,04,03,08,50,11.60
2004,04,03,08,51,11.60
2004,04,03,08,52,11.70
2004,04,03,08,53,11.70
2004,04,03,08,54,11.70
2004,04,03,08,55,11.70
2004,04,03,08,56,11.70
2004,04,03,08,57,11.70
2004,04,03,08,58,11.70
2004,04,03,08,59,11.80
2004,04,03,09,00,11.90
2004,04,03,09,01,11.90
2004,04,03,09,02,11.90
2004,04,03,09,03,11.90
2004,04,03,09,04,11.80
2004,04,03,09,05,11.80
2004,04,03,09,06,11.80
2004,04,03,09,07,12.00
2004,04,03,09,08,12.10
2004,04,03,09,09,12.20
2004,04,03,09,10,12.30
2004,04,03,09,11,12.30
2004,04,03,09,12,12.30
2004,04,03,09,13,12.30
2004,04,03,09,14,12.30
2004,04,03,09,15,12.30
2004,04,03,09,16,12.30
2004,04,03,09,17,12.30
2004,04,03,09,18,12.30
2004,04,03,09,19,12.40
2004,04,03,09,20,12.60
2004,04,03,09,21,12.70
2004,04,03,09,22,12.80
2004,04,03,09,23,12.90
2004,04,03,09,24,12.90
2004,04,03,09,25,13.00
2004,04,03,09,26,13.00
2004,04,03,09,27,13.10
2004,04,03,09,28,13.10
2004,04,03,09,29,13.10
2004,04,03,09,30,13.20
2004,04,03,09,31,13.30
2004,04,03,09,32,13.30
2004,04,03,09,33,13.30
2004,04,03,09,34,13.30
2004,04,03,09,35,13.30
2004,04,03,09,36,13.40
2004,04,03,09,37,13.40
2004,04,03,09,38,13.40
2004,04,03,09,39,13.40
2004,04,03,09,40,13.30
2004,04,03,09,41,13.30
2004,04,03,09,42,13.30
2004,04,03,09,43,13.30
2004,04,03,09,44,13.30
2004,04,03,09,45,13.30
2004,04,03,09,46,13.40
2004,04,03,09,47,13.50
2004,04,03,09,48,13.60
2004,04,03,09,49,13.50
2004,04,03,09,50,13.50
2004,04,03,09,51,13.50
2004,04,03,09,52,13.50
2004,04,03,09,53,13.60
2004,04,03,09,54,13.70
2004,04,03,09,55,13.70
2004,04,03,09,56,13.70
2004,04,03,09,57,13.70
2004,04,03,09,58,13.70
2004,04,03,09,59,13.80
2004,04,03,10,00,14.00
2004,04,03,10,01,14.10
2004,04,03,10,02,14.10
2004,04,03,10,03,14.00
2004,04,03,10,04,13.90
2004,04,03,10,05,13.90
2004,04,03,10,06,13.90
2004,04,03,10,07,14.00
2004,04,03,10,08,14.00
2004,04,03,10,09,13.90
2004,04,03,10,10,13.90
2004,04,03,10,11,13.80
2004,04,03,10,12,13.80
2004,04,03,10,13,13.90
2004,04,03,10,14,13.90
2004,04,03,10,15,13.90
2004,04,03,10,16,13.90
2004,04,03,10,17,13.80
2004,04,03,10,18,13.80
2004,04,03,10,19,13.80
2004,04,03,10,20,13.80
2004,04,03,10,21,13.70
2004,04,03,10,22,13.80
2004,04,03,10,23,13.80
2004,04,03,10,24,13.70
2004,04,03,10,25,13.70
2004,04,03,10,26,13.60
2004,04,03,10,27,13.70
2004,04,03,10,28,13.70
2004,04,03,10,29,13.70
2004,04,03,10,30,13.70
2004,04,03,10,31,13.80
2004,04,03,10,32,13.90
2004,04,03,10,33,13.90
2004,04,03,10,34,13.90
2004,04,03,10,35,13.90
2004,04,03,10,36,13.90
2004,04,03,10,37,13.90
2004,04,03,10,38,13.70
2004,04,03,10,39,13.70
2004,04,03,10,40,13.70
2004,04,03,10,41,13.80
2004,04,03,10,42,13.90
2004,04,03,10,43,14.00
2004,04,03,10,44,14.10
2004,04,03,10,45,14.20
2004,04,03,10,46,14.20
2004,04,03,10,47,14.40
2004,04,03,10,48,14.40
2004,04,03,10,49,14.40
2004,04,03,10,50,14.50
2004,04,03,10,51,14.50
2004,04,03,10,52,14.50
2004,04,03,10,53,14.50
2004,04,03,10,54,14.50
2004,04,03,10,55,14.60
2004,04,03,10,56,14.70
2004,04,03,10,57,14.80
2004,04,03,10,58,14.80
2004,04,03,10,59,14.80
2004,04,03,11,00,14.80
2004,04,03,11,01,14.80
2004,04,03,11,02,14.80
2004,04,03,11,03,14.80
2004,04,03,11,04,14.80
2004,04,03,11,05,14.80
2004,04,03,11,06,14.80
2004,04,03,11,07,14.80
2004,04,03,11,08,14.80
2004,04,03,11,09,14.80
2004,04,03,11,10,14.80
2004,04,03,11,11,14.80
2004,04,03,11,12,14.80
2004,04,03,11,13,14.90
2004,04,03,11,14,14.90
2004,04,03,11,15,15.00
2004,04,03,11,16,15.10
2004,04,03,11,17,15.10
2004,04,03,11,18,15.10
2004,04,03,11,19,15.10
2004,04,03,11,20,15.30
2004,04,03,11,21,15.40
2004,04,03,11,22,15.50
2004,04,03,11,23,15.60
2004,04,03,11,24,15.70
2004,04,03,11,25,15.80
2004,04,03,11,26,15.90
2004,04,03,11,27,16.10
2004,04,03,11,28,16.10
2004,04,03,11,29,16.10
2004,04,03,11,30,16.10
2004,04,03,11,31,16.10
2004,04,03,11,32,16.10
2004,04,03,11,33,16.10
2004,04,03,11,34,16.10
2004,04,03,11,35,16.10
2004,04,03,11,36,16.10
2004,04,03,11,37,16.00
2004,04,03,11,38,16.10
2004,04,03,11,39,16.10
2004,04,03,11,40,16.10
2004,04,03,11,41,16.10
2004,04,03,11,42,16.20
2004,04,03,11,43,16.20
2004,04,03,11,44,16.40
2004,04,03,11,45,16.40
2004,04,03,11,46,16.50
2004,04,03,11,47,16.70
2004,04,03,11,48,16.70
2004,04,03,11,49,16.70
2004,04,03,11,50,16.70
2004,04,03,11,51,16.70
2004,04,03,11,52,16.70
2004,04,03,11,53,16.60
2004,04,03,11,54,16.70
2004,04,03,11,55,16.70
2004,04,03,11,56,16.70
2004,04,03,11,57,16.70
2004,04,03,11,58,16.70
2004,04,03,11,59,16.70
2004,04,03,12,00,16.70
2004,04,03,12,01,16.90
2004,04,03,12,02,16.90
2004,04,03,12,03,16.80
2004,04,03,12,04,16.70
2004,04,03,12,05,16.80
2004,04,03,12,06,16.90
2004,04,03,12,07,17.00
2004,04,03,12,08,17.10
2004,04,03,12,09,17.20
2004,04,03,12,10,17.20
2004,04,03,12,11,17.30
2004,04,03,12,12,17.30
2004,04,03,12,13,17.30
2004,04,03,12,14,17.00
2004,04,03,12,15,16.80
2004,04,03,12,16,16.70
2004,04,03,12,17,16.70
2004,04,03,12,18,16.80
2004,04,03,12,19,16.80
2004,04,03,12,20,16.70
2004,04,03,12,21,16.70
2004,04,03,12,22,16.70
2004,04,03,12,23,16.80
2004,04,03,12,24,16.80
2004,04,03,12,25,16.80
2004,04,03,12,26,16.80
2004,04,03,12,27,16.60
2004,04,03,12,28,16.50
2004,04,03,12,29,16.60
2004,04,03,12,30,16.70
2004,04,03,12,31,16.70
2004,04,03,12,32,16.70
2004,04,03,12,33,16.60
2004,04,03,12,34,16.40
2004,04,03,12,35,16.30
2004,04,03,12,36,16.20
2004,04,03,12,37,16.20
2004,04,03,12,38,16.30
2004,04,03,12,39,16.30
2004,04,03,12,40,16.30
2004,04,03,12,41,16.30
2004,04,03,12,42,16.50
2004,04,03,12,43,16.60
2004,04,03,12,44,16.40
2004,04,03,12,45,16.40
2004,04,03,12,46,16.30
2004,04,03,12,47,16.40
2004,04,03,12,48,16.40
2004,04,03,12,49,16.40
2004,04,03,12,50,16.40
2004,04,03,12,51,16.40
2004,04,03,12,52,16.20
2004,04,03,12,53,16.20
2004,04,03,12,54,16.20
2004,04,03,12,55,16.10
2004,04,03,12,56,16.10
2004,04,03,12,57,16.10
2004,04,03,12,58,16.10
2004,04,03,12,59,16.10
2004,04,03,13,00,16.10
2004,04,03,13,01,16.20
2004,04,03,13,02,16.20
2004,04,03,13,03,16.30
2004,04,03,13,04,16.30
2004,04,03,13,05,16.30
2004,04,03,13,06,16.40
2004,04,03,13,07,16.40
2004,04,03,13,08,16.50
2004,04,03,13,09,16.40
2004,04,03,13,10,16.50
2004,04,03,13,11,16.70
2004,04,03,13,12,16.70
2004,04,03,13,13,16.70
2004,04,03,13,14,16.90
2004,04,03,13,15,17.30
2004,04,03,13,16,17.60
2004,04,03,13,17,18.00
2004,04,03,13,18,18.30
2004,04,03,13,19,18.50
2004,04,03,13,20,18.80
2004,04,03,13,21,18.90
2004,04,03,13,22,19.10
2004,04,03,13,23,19.20
2004,04,03,13,24,19.40
2004,04,03,13,25,19.50
2004,04,03,13,26,19.60
2004,04,03,13,27,19.60
2004,04,03,13,28,19.60
2004,04,03,13,29,19.20
2004,04,03,13,30,19.00
2004,04,03,13,31,18.60
2004,04,03,13,32,18.40
2004,04,03,13,33,18.50
2004,04,03,13,34,18.30
2004,04,03,13,35,18.00
2004,04,03,13,36,17.90
2004,04,03,13,37,17.90
2004,04,03,13,38,17.70
2004,04,03,13,39,17.50
2004,04,03,13,40,17.20
2004,04,03,13,41,17.00
2004,04,03,13,42,16.80
2004,04,03,13,43,16.80
2004,04,03,13,44,16.90
2004,04,03,13,45,17.00
2004,04,03,13,46,16.90
2004,04,03,13,47,16.90
2004,04,03,13,48,16.80
2004,04,03,13,49,16.70
2004,04,03,13,50,16.60
2004,04,03,13,51,16.70
2004,04,03,13,52,16.70
2004,04,03,13,53,16.80
2004,04,03,13,54,16.90
2004,04,03,13,55,17.00
2004,04,03,13,56,17.20
2004,04,03,13,57,17.20
2004,04,03,13,58,17.10
2004,04,03,13,59,17.00
2004,04,03,14,00,17.10
2004,04,03,14,01,17.00
2004,04,03,14,02,17.10
2004,04,03,14,03,17.10
2004,04,03,14,04,17.00
2004,04,03,14,05,17.20
2004,04,03,14,06,17.30
2004,04,03,14,07,17.20
2004,04,03,14,08,17.10
2004,04,03,14,09,17.00
2004,04,03,14,10,17.00
2004,04,03,14,11,17.20
2004,04,03,14,12,17.40
2004,04,03,14,13,17.50
2004,04,03,14,14,17.70
2004,04,03,14,15,17.70
2004,04,03,14,16,17.80
2004,04,03,14,17,17.80
2004,04,03,14,18,17.90
2004,04,03,14,19,17.90
2004,04,03,14,20,17.90
2004,04,03,14,21,18.10
2004,04,03,14,22,18.20
2004,04,03,14,23,18.00
2004,04,03,14,24,18.00
2004,04,03,14,25,18.00
2004,04,03,14,26,18.10
2004,04,03,14,27,18.00
2004,04,03,14,28,18.00
2004,04,03,14,29,18.10
2004,04,03,14,30,18.10
2004,04,03,14,31,18.10
2004,04,03,14,32,18.00
2004,04,03,14,33,17.90
2004,04,03,14,34,17.80
2004,04,03,14,35,17.60
2004,04,03,14,36,17.60
2004,04,03,14,37,17.60
2004,04,03,14,38,17.60
2004,04,03,14,39,17.40
2004,04,03,14,40,17.30
2004,04,03,14,41,17.20
2004,04,03,14,42,17.20
2004,04,03,14,43,17.30
2004,04,03,14,44,17.40
2004,04,03,14,45,17.40
2004,04,03,14,46,17.40
2004,04,03,14,47,17.60
2004,04,03,14,48,17.80
2004,04,03,14,49,17.80
2004,04,03,14,50,17.90
2004,04,03,14,51,17.70
2004,04,03,14,52,17.60
2004,04,03,14,53,17.70
2004,04,03,14,54,17.80
2004,04,03,14,55,17.80
2004,04,03,14,56,17.80
2004,04,03,14,57,17.90
2004,04,03,14,58,17.90
2004,04,03,14,59,17.90
2004,04,03,15,00,17.90
2004,04,03,15,01,17.80
2004,04,03,15,02,17.80
2004,04,03,15,03,17.80
2004,04,03,15,04,17.70
2004,04,03,15,05,17.70
2004,04,03,15,06,17.60
2004,04,03,15,07,17.80
2004,04,03,15,08,17.80
2004,04,03,15,09,17.90
2004,04,03,15,10,17.90
2004,04,03,15,11,17.90
2004,04,03,15,12,17.60
2004,04,03,15,13,17.70
2004,04,03,15,14,17.90
2004,04,03,15,15,18.10
2004,04,03,15,16,18.20
2004,04,03,15,17,18.20
2004,04,03,15,18,18.30
2004,04,03,15,19,18.10
2004,04,03,15,20,18.10
2004,04,03,15,21,18.20
2004,04,03,15,22,18.20
2004,04,03,15,23,18.10
2004,04,03,15,24,18.20
2004,04,03,15,25,18.10
2004,04,03,15,26,17.90
2004,04,03,15,27,17.90
2004,04,03,15,28,17.80
2004,04,03,15,29,17.70
2004,04,03,15,30,17.80
2004,04,03,15,31,17.80
2004,04,03,15,32,17.70
2004,04,03,15,33,17.80
2004,04,03,15,34,17.80
2004,04,03,15,35,17.90
2004,04,03,15,36,17.90
2004,04,03,15,37,17.90
2004,04,03,15,38,18.00
2004,04,03,15,39,18.10
2004,04,03,15,40,18.10
2004,04,03,15,41,17.90
2004,04,03,15,42,17.80
2004,04,03,15,43,17.80
2004,04,03,15,44,17.80
2004,04,03,15,45,17.90
2004,04,03,15,46,18.00
2004,04,03,15,47,18.20
2004,04,03,15,48,18.20
2004,04,03,15,49,18.10
2004,04,03,15,50,18.00
2004,04,03,15,51,17.80
2004,04,03,15,52,17.70
2004,04,03,15,53,17.50
2004,04,03,15,54,17.70
2004,04,03,15,55,17.70
2004,04,03,15,56,17.80
2004,04,03,15,57,17.80
2004,04,03,15,58,17.70
2004,04,03,15,59,17.70
2004,04,03,16,00,17.70
2004,04,03,16,01,17.50
2004,04,03,16,02,17.50
2004,04,03,16,03,17.40
2004,04,03,16,04,17.40
2004,04,03,16,05,17.50
2004,04,03,16,06,17.50
2004,04,03,16,07,17.60
2004,04,03,16,08,17.60
2004,04,03,16,09,17.70
2004,04,03,16,10,17.60
2004,04,03,16,11,17.60
2004,04,03,16,12,17.80
2004,04,03,16,13,17.80
2004,04,03,16,14,17.70
2004,04,03,16,15,17.80
2004,04,03,16,16,17.80
2004,04,03,16,17,17.90
2004,04,03,16,18,17.90
2004,04,03,16,19,17.90
2004,04,03,16,20,17.90
2004,04,03,16,21,17.90
2004,04,03,16,22,17.90
2004,04,03,16,23,17.90
2004,04,03,16,24,18.00
2004,04,03,16,25,18.10
2004,04,03,16,26,18.10
2004,04,03,16,27,18.10
2004,04,03,16,28,18.10
2004,04,03,16,29,18.20
2004,04,03,16,30,18.30
2004,04,03,16,31,18.40
2004,04,03,16,32,18.50
2004,04,03,16,33,18.50
2004,04,03,16,34,18.50
2004,04,03,16,35,18.50
2004,04,03,16,36,18.60
2004,04,03,16,37,18.70
2004,04,03,16,38,18.70
2004,04,03,16,39,18.80
2004,04,03,16,40,18.80
2004,04,03,16,41,18.90
2004,04,03,16,42,18.90
2004,04,03,16,43,19.00
2004,04,03,16,44,19.10
2004,04,03,16,45,19.10
2004,04,03,16,46,19.20
2004,04,03,16,47,19.30
2004,04,03,16,48,19.20
2004,04,03,16,49,19.20
2004,04,03,16,50,19.20
2004,04,03,16,51,19.20
2004,04,03,16,52,19.30
2004,04,03,16,53,19.40
2004,04,03,16,54,19.40
2004,04,03,16,55,19.30
2004,04,03,16,56,19.40
2004,04,03,16,57,19.40
2004,04,03,16,58,19.40
2004,04,03,16,59,19.30
2004,04,03,17,00,19.30
2004,04,03,17,01,19.30
2004,04,03,17,02,19.40
2004,04,03,17,03,19.50
2004,04,03,17,04,19.60
2004,04,03,17,05,19.80
2004,04,03,17,06,19.80
2004,04,03,17,07,20.00
2004,04,03,17,08,20.10
2004,04,03,17,09,20.10
2004,04,03,17,10,20.10
2004,04,03,17,11,20.00
2004,04,03,17,12,20.00
2004,04,03,17,13,20.00
2004,04,03,17,14,19.90
2004,04,03,17,15,19.90
2004,04,03,17,16,20.00
2004,04,03,17,17,19.90
2004,04,03,17,18,20.00
2004,04,03,17,19,20.00
2004,04,03,17,20,19.90
2004,04,03,17,21,19.80
2004,04,03,17,22,19.80
2004,04,03,17,23,19.70
2004,04,03,17,24,19.60
2004,04,03,17,25,19.50
2004,04,03,17,26,19.50
2004,04,03,17,27,19.40
2004,04,03,17,28,19.30
2004,04,03,17,29,19.30
2004,04,03,17,30,19.20
2004,04,03,17,31,19.10
2004,04,03,17,32,19.10
2004,04,03,17,33,19.10
2004,04,03,17,34,19.10
2004,04,03,17,35,19.10
2004,04,03,17,36,19.00
2004,04,03,17,37,19.00
2004,04,03,17,38,18.90
2004,04,03,17,39,18.90